This demonstration page uses our WeatherBlox Daily Observations layout. Learn more.

Left ArrowRight Arrow

Hourly Observations for July 1, 2022

Temp ( °F °C ) Dew Point ( °F °C ) Humidity (%) Winds ( mph kmh ) Pressure ( in mb ) Visibility ( mi km ) Precip ( " mm )
12:53 am 00:53 Clear 69 20.6 63 17.2 81 81 Calm 30.04 1017 10 16 0.00 0.00
1:53 am 01:53 Mostly Clear 70 21.1 64 17.8 82 82 Calm 30.04 1017 10 16 0.00 0.00
2:53 am 02:53 Mostly Clear 69 20.6 64 17.8 84 84 Calm 30.03 1017 10 16 0.00 0.00
3:53 am 03:53 Partly Cloudy 69 20.6 65 18.3 87 87 Calm 30.03 1017 10 16 0.00 0.00
4:53 am 04:53 Clear 69 20.6 66 18.9 90 90 Calm 30.02 1017 10 16 0.00 0.00
5:53 am 05:53 Partly Cloudy 69 20.6 67 19.4 93 93 Calm 30.03 1017 10 16 0.00 0.00
6:53 am 06:53 Sunny 70 21.1 67 19.4 90 90 Calm 30.04 1017 10 16 0.00 0.00
7:53 am 07:53 Sunny 79 26.1 70 21.1 74 74 Calm 30.04 1017 10 16 0.00 0.00
8:53 am 08:53 Sunny 82 27.8 71 21.7 69 69 VRB 5 7 30.04 1017 10 16 0.00 0.00
9:53 am 09:53 Sunny 85 29.4 72 22.2 65 65 VRB 5 7 30.04 1017 10 16 0.00 0.00
10:53 am 10:53 Sunny 87 30.6 72 22.2 61 61 VRB 5 7 30.03 1017 10 16 0.00 0.00
11:53 am 11:53 Sunny 88 31.1 73 22.8 61 61 WSW 7 11 30.03 1017 10 16 0.00 0.00
12:53 pm 12:53 Mostly Sunny 90 32.2 70 21.1 52 52 VRB 7 11 30.02 1017 10 16 0.00 0.00
1:53 pm 13:53 Mostly Sunny 92 33.3 70 21.1 49 49 W 9 15 30.00 1016 10 16 0.00 0.00
2:53 pm 14:53 Partly Cloudy 92 33.3 71 21.7 51 51 WSW 6 9 29.97 1015 10 16 0.00 0.00
3:53 pm 15:53 Partly Cloudy 91 32.8 71 21.7 52 52 VRB 6 9 29.96 1015 10 16 0.00 0.00
4:53 pm 16:53 Sunny 89 31.7 70 21.1 53 53 SW 8 13 29.95 1014 10 16 0.00 0.00
5:53 pm 17:53 Sunny 89 31.7 70 21.1 53 53 VRB 5 7 29.95 1014 10 16 0.00 0.00
6:53 pm 18:53 Sunny 88 31.1 71 21.7 57 57 SW 7 11 29.95 1014 10 16 0.00 0.00
7:36 pm 19:36 Sunny with Nearby Thunderstorms 85 29.4 72 22.2 65 65 VRB 3 6 29.93 1013 10 16 0.00 0.00
7:45 pm 19:45 Partly Cloudy with Thunderstorms 85 29.4 71 21.7 63 63 SW 3 6 29.93 1013 10 16 0.00 0.00
7:53 pm 19:53 Mostly Cloudy with Thunderstorms 83 28.3 72 22.2 70 70 VRB 3 6 29.94 1014 10 16 0.00 0.00
8:31 pm 20:31 Mostly Cloudy with Nearby Thunderstorms 75 23.9 72 22.2 90 90 Calm 29.95 1014 10 16 0.03 0.76
8:46 pm 20:46 Mostly Sunny 75 23.9 72 22.2 90 90 Calm 29.94 1014 10 16 0.03 0.76
8:53 pm 20:53 Mostly Sunny 74 23.3 71 21.7 91 91 Calm 29.94 1014 10 16 0.03 0.76
9:53 pm 21:53 Mostly Clear 76 24.4 70 21.1 82 82 NW 8 13 29.98 1015 10 16 0.00 0.00
10:53 pm 22:53 Clear 72 22.2 70 21.1 94 94 Calm 29.98 1015 10 16 0.00 0.00
11:53 pm 23:53 Clear 70 21.1 68 20 93 93 Calm 29.97 1015 10 16 0.00 0.00

Powered by AerisWeather